User: anonymous
Location: Waldport
(44.4270°N, 124.0680°W)
Time: 03:10:24
(UTC-07:00)
Language:

Cosmos 1570 Rocket - Orbit

View from above orbital plane
View from above orbital plane
View from above satellite
View from above satellite

Ground track
Ground track

The orbit data is extracted from the following two-line orbital elements,

1 15032U 84056B   14241.32748792  .00000109  00000-0  48031-4 0  4667
2 15032 074.0723 145.7054 0017950 209.4775 281.2870 14.34396350580243
Epoch (UTC): 29 August 2014 07:51:34
Eccentricity: 0.0017950
inclination: 74.0723°
perigee height: 764 km
apogee height: 790 km
right ascension of ascending node: 145.7054°
argument of perigee: 209.4775°
revolutions per day: 14.34396350
mean anomaly at epoch: 281.2870°
orbit number at epoch: 58024

The dashed part of the orbit path shows where the satellite is in the earth's shadow,  

DLR